Weather History for Salisbury, MD

Change the Weather History Date:

Thursday, September 26, 2013

  Actual Average Record
Temperature  
Mean Temperature 67 °F 64 °F  
Max Temperature 77 °F 75 °F 95 °F (1930)
Min Temperature 56 °F 54 °F 38 °F (1950)
Degree Days  
Heating Degree Days 0 3  
Month to date heating degree days 26 30  
Since 1 July heating degree days 26 32  
Cooling Degree Days 2 2  
Month to date cooling degree days 167 134  
Year to date cooling degree days 1530 1117  
Growing Degree Days 16 (Base 50)    
Moisture  
Dew Point 55 °F    
Average Humidity 68    
Maximum Humidity 93    
Minimum Humidity 43    
Precipitation  
Precipitation 0.00 in 0.13 in 2.41 in (1985)
Month to date precipitation 0.77 3.44  
Year to date precipitation 40.45 34.51  
Snow  
Snow 0.00 in 0.00 in 0.00 in (2002)
Month to date snowfall 0.0 0.0  
Since 1 July snowfall 0.0 0.0  
Snow Depth 0.00 in    
Sea Level Pressure  
Sea Level Pressure 29.99 in    
Wind  
Wind Speed 4 mph (NE)    
Max Wind Speed 14 mph    
Max Gust Speed 20 mph    
Visibility 10 miles    
Events      
T = Trace of Precipitation, MM = Missing Value Source: NWS Daily Summary

Daily Weather History Graph

Daily Weather History Graph

Search for Another Location

Airport:

Trip Planner

Search our weather history database for the weather conditions in past years. The results will help you decide how hot, cold, wet, or windy it might be!

Date:

Astronomy

Sep. 26, 2013 Rise Set
Actual Time 6:53 AM EDT 6:52 PM EDT
Civil Twilight 6:27 AM EDT 7:18 PM EDT
Nautical Twilight 5:56 AM EDT 7:49 PM EDT
Astronomical Twilight 5:25 AM EDT 8:20 PM EDT
Moon 11:52 PM EDT (9/26) 1:39 PM EDT (9/26)
Length of Visible Light 12h 51m
Length of Day
11h 58m
Waning Gibbous, 55% of the Moon is Illuminated
Sep 26
Waning Gibbous
Sep 26
Last Quarter
Oct 4
New
Oct 11
First Quarter
Oct 18
Full

Hourly Weather History & Observations

Time (EDT) Temp. Dew Point Humidity Pressure Visibility Wind Dir Wind Speed Gust Speed Precip Events Conditions
12:54 AM 59.0 °F 54.0 °F 83% 29.94 in 10.0 mi Calm Calm - N/A   Clear
1:54 AM 57.0 °F 53.1 °F 87% 29.94 in 10.0 mi Calm Calm - N/A   Clear
2:54 AM 57.9 °F 54.0 °F 87% 29.92 in 10.0 mi Calm Calm - N/A   Clear
3:54 AM 57.9 °F 54.0 °F 87% 29.92 in 10.0 mi Calm Calm - N/A   Clear
4:54 AM 57.9 °F 55.0 °F 90% 29.93 in 10.0 mi Calm Calm - N/A   Clear
5:54 AM 59.0 °F 55.0 °F 87% 29.93 in 10.0 mi Calm Calm - N/A   Clear
6:54 AM 57.9 °F 54.0 °F 87% 29.95 in 10.0 mi Calm Calm - N/A   Clear
7:54 AM 61.0 °F 55.9 °F 83% 29.97 in 10.0 mi Calm Calm - N/A   Mostly Cloudy
8:54 AM 64.0 °F 57.9 °F 80% 29.98 in 10.0 mi NNE 3.5 mph - N/A   Clear
9:54 AM 68.0 °F 57.9 °F 70% 29.99 in 10.0 mi NE 10.4 mph - N/A   Partly Cloudy
10:54 AM 72.0 °F 57.0 °F 59% 30.00 in 10.0 mi NNE 12.7 mph - N/A   Partly Cloudy
11:54 AM 73.9 °F 57.9 °F 57% 30.00 in 10.0 mi NNE 12.7 mph 16.1 mph N/A   Scattered Clouds
12:54 PM 73.9 °F 57.0 °F 55% 30.00 in 10.0 mi NE 10.4 mph - N/A   Partly Cloudy
1:54 PM 75.9 °F 57.0 °F 52% 29.99 in 10.0 mi NNE 9.2 mph - N/A   Partly Cloudy
2:54 PM 73.9 °F 55.0 °F 52% 29.99 in 10.0 mi ENE 8.1 mph - N/A   Scattered Clouds
3:54 PM 75.0 °F 52.0 °F 44% 29.99 in 10.0 mi ENE 5.8 mph - N/A   Clear
4:54 PM 72.0 °F 54.0 °F 53% 30.00 in 10.0 mi ENE 6.9 mph - N/A   Partly Cloudy
5:54 PM 70.0 °F 55.9 °F 61% 30.01 in 10.0 mi East 4.6 mph - N/A   Clear
6:54 PM 66.9 °F 57.0 °F 70% 30.02 in 10.0 mi ENE 4.6 mph - N/A   Clear
7:54 PM 63.0 °F 55.9 °F 78% 30.04 in 10.0 mi Calm Calm - N/A   Clear
8:54 PM 61.0 °F 55.9 °F 83% 30.06 in 10.0 mi Calm Calm - N/A   Clear
9:54 PM 60.1 °F 55.9 °F 86% 30.07 in 10.0 mi Calm Calm - N/A   Clear
10:54 PM 59.0 °F 55.0 °F 87% 30.08 in 10.0 mi Calm Calm - N/A   Clear
11:54 PM 57.0 °F 53.1 °F 87% 30.08 in 10.0 mi Calm Calm - N/A   Clear